QPF
0.00 0.00 0.00 0.00 0.00 0.00 0.00 0.00 0.00 0.00 0.00 0.00 0.00 0.00 0.00 0.00 0.00 0.00 0.00 0.00 0.00 0.00 0.00 0.00 0.00 0.00 0.00 0.00 0.00 0.00 0.00 0.00 0.00 0.00 0.00 0.00 0.00 0.00 0.00 0.00 0.00 0.00 0.00
0.00 0.00 0.00 0.00 0.00 0.00 0.00 0.00 0.00 0.00 0.00 0.00 0.00 0.00 0.00 0.00 0.00 0.00 0.00 0.00 0.00 0.00 0.00 0.00 0.00 0.00 0.01 0.02 0.02 0.01 0.01 0.00 0.00 0.00 0.00 0.00 0.00 0.00 0.00 0.00 0.00 0.00 0.00
0.00 0.00 0.00 0.00 0.00 0.00 0.00 0.00 0.00 0.00 0.00 0.00 0.00 0.00 0.00 0.00 0.00 0.00 0.00 0.00 0.00 0.00 0.00 0.00 0.00 0.01 0.02 0.03 0.04 0.04 0.03 0.01 0.01 0.00 0.00 0.00 0.00 0.00 0.00 0.00 0.00 0.00 0.00
0.00 0.00 0.01 0.01 0.01 0.01 0.01 0.01 0.01 0.01 0.01 0.01 0.01 0.00 0.00 0.00 0.00 0.00 0.00 0.00 0.00 0.00 0.00 0.00 0.00 0.00 0.01 0.03 0.04 0.06 0.06 0.05 0.03 0.01 0.00 0.00 0.00 0.00 0.00 0.00 0.00 0.00 0.00
0.00 0.00 0.01 0.01 0.02 0.01 0.02 0.02 0.01 0.01 0.01 0.01 0.01 0.00 0.00 0.00 0.00 0.00 0.00 0.00 0.00 0.00 0.00 0.00 0.00 0.00 0.01 0.01 0.03 0.06 0.08 0.10 0.08 0.04 0.02 0.01 0.01 0.00 0.00 0.00 0.00 0.00 0.00
0.00 0.00 0.00 0.01 0.01 0.01 0.01 0.02 0.01 0.01 0.01 0.01 0.01 0.01 0.00 0.00 0.00 0.00 0.00 0.00 0.00 0.00 0.00 0.00 0.00 0.01 0.00 0.01 0.01 0.03 0.06 0.10 0.12 0.10 0.07 0.04 0.02 0.01 0.01 0.00 0.00 0.00 0.00
0.00 0.00 0.00 0.01 0.01 0.01 0.01 0.02 0.02 0.02 0.02 0.02 0.02 0.01 0.00 0.00 0.00 0.00 0.00 0.00 0.00 0.00 0.00 0.00 0.00 0.01 0.01 0.01 0.01 0.02 0.03 0.06 0.10 0.12 0.13 0.11 0.07 0.04 0.02 0.01 0.01 0.00 0.00
0.00 0.00 0.00 0.01 0.01 0.01 0.01 0.02 0.02 0.02 0.02 0.02 0.02 0.02 0.01 0.00 0.00 0.00 0.00 0.00 0.00 0.00 0.00 0.00 0.00 0.00 0.00 0.01 0.01 0.01 0.01 0.02 0.05 0.08 0.11 0.13 0.13 0.10 0.08 0.06 0.04 0.02 0.01
0.01 0.01 0.00 0.00 0.01 0.01 0.01 0.01 0.02 0.02 0.02 0.02 0.02 0.02 0.02 0.01 0.01 0.00 0.00 0.00 0.00 0.00 0.00 0.00 0.00 0.00 0.00 0.00 0.00 0.00 0.00 0.00 0.01 0.03 0.05 0.09 0.13 0.14 0.14 0.12 0.10 0.07 0.04
0.01 0.00 0.00 0.00 0.00 0.00 0.00 0.01 0.01 0.01 0.02 0.02 0.02 0.02 0.02 0.02 0.02 0.01 0.00 0.00 0.00 0.00 0.00 0.00 0.00 0.00 0.00 0.00 0.00 0.00 0.00 0.00 0.00 0.02 0.03 0.06 0.10 0.14 0.18 0.19 0.18 0.15 0.11
0.00 0.00 0.00 0.00 0.00 0.00 0.00 0.00 0.00 0.01 0.01 0.01 0.01 0.02 0.01 0.02 0.02 0.02 0.01 0.01 0.00 0.00 0.00 0.00 0.00 0.00 0.00 0.00 0.00 0.00 0.00 0.00 0.00 0.01 0.03 0.06 0.09 0.13 0.17 0.22 0.25 0.26 0.25
0.00 0.00 0.00 0.00 0.00 0.00 0.00 0.00 0.00 0.00 0.01 0.01 0.01 0.01 0.02 0.02 0.02 0.02 0.02 0.01 0.01 0.01 0.00 0.00 0.00 0.00 0.00 0.00 0.00 0.00 0.00 0.00 0.00 0.01 0.02 0.05 0.08 0.09 0.13 0.19 0.24 0.28 0.29
0.00 0.00 0.00 0.00 0.00 0.00 0.00 0.00 0.00 0.00 0.00 0.00 0.00 0.01 0.01 0.01 0.01 0.01 0.01 0.01 0.01 0.01 0.00 0.00 0.00 0.00 0.00 0.00 0.00 0.00 0.00 0.00 0.01 0.01 0.02 0.03 0.05 0.06 0.09 0.13 0.18 0.22 0.24
0.00 0.00 0.00 0.00 0.00 0.00 0.00 0.00 0.00 0.00 0.00 0.00 0.00 0.00 0.00 0.00 0.00 0.00 0.01 0.01 0.01 0.01 0.01 0.00 0.00 0.00 0.00 0.00 0.00 0.00 0.00 0.01 0.01 0.01 0.01 0.01 0.03 0.04 0.04 0.06 0.10 0.16 0.19
0.00 0.00 0.00 0.00 0.00 0.00 0.00 0.00 0.00 0.00 0.00 0.00 0.00 0.00 0.00 0.00 0.00 0.00 0.00 0.00 0.01 0.01 0.01 0.00 0.00 0.00 0.00 0.00 0.00 0.00 0.00 0.00 0.01 0.01 0.01 0.01 0.02 0.03 0.04 0.04 0.05 0.08 0.10
0.00 0.00 0.00 0.00 0.00 0.00 0.00 0.00 0.00 0.00 0.00 0.00 0.00 0.00 0.00 0.00 0.00 0.00 0.00 0.00 0.00 0.01 0.01 0.00 0.00 0.00 0.00 0.00 0.00 0.00 0.00 0.00 0.00 0.01 0.01 0.01 0.01 0.03 0.04 0.04 0.04 0.05 0.06
0.00 0.00 0.00 0.00 0.00 0.00 0.00 0.00 0.00 0.00 0.00 0.00 0.00 0.00 0.00 0.00 0.00 0.00 0.00 0.00 0.00 0.00 0.00 0.00 0.00 0.00 0.00 0.00 0.00 0.00 0.00 0.00 0.00 0.01 0.01 0.00 0.01 0.03 0.03 0.03 0.04 0.05 0.06
0.00 0.00 0.00 0.00 0.00 0.00 0.00 0.00 0.00 0.00 0.00 0.00 0.00 0.00 0.00 0.00 0.00 0.00 0.00 0.00 0.00 0.00 0.00 0.00 0.00 0.00 0.00 0.00 0.00 0.00 0.00 0.00 0.00 0.01 0.01 0.01 0.01 0.02 0.02 0.02 0.02 0.04 0.05
0.00 0.00 0.00 0.00 0.00 0.00 0.00 0.00 0.00 0.00 0.00 0.00 0.00 0.00 0.00 0.00 0.00 0.00 0.00 0.00 0.00 0.00 0.00 0.00 0.00 0.00 0.00 0.00 0.00 0.00 0.00 0.00 0.00 0.00 0.00 0.01 0.01 0.02 0.01 0.01 0.01 0.01 0.02
0.00 0.00 0.00 0.00 0.00 0.00 0.00 0.00 0.00 0.00 0.00 0.00 0.00 0.00 0.00 0.00 0.00 0.00 0.00 0.00 0.00 0.00 0.00 0.00 0.00 0.00 0.00 0.00 0.00 0.00 0.00 0.00 0.00 0.00 0.00 0.00 0.01 0.01 0.01 0.01 0.01 0.00 0.00
0.00 0.00 0.00 0.00 0.00 0.00 0.00 0.00 0.00 0.00 0.00 0.00 0.00 0.00 0.00 0.00 0.00 0.00 0.00 0.00 0.00 0.00 0.00 0.00 0.00 0.00 0.00 0.00 0.00 0.00 0.00 0.00 0.00 0.00 0.00 0.00 0.00 0.00 0.00 0.00 0.00 0.00 0.00
0.00 0.00 0.00 0.00 0.00 0.00 0.00 0.00 0.00 0.00 0.00 0.00 0.00 0.00 0.00 0.00 0.00 0.00 0.00 0.00 0.00 0.00 0.00 0.00 0.00 0.00 0.00 0.00 0.00 0.00 0.00 0.00 0.00 0.00 0.00 0.00 0.00 0.00 0.00 0.00 0.00 0.00 0.00
0.00 0.00 0.00 0.00 0.00 0.00 0.00 0.00 0.00 0.00 0.00 0.00 0.00 0.00 0.00 0.00 0.00 0.00 0.00 0.00 0.00 0.00 0.00 0.00 0.00 0.00 0.00 0.00 0.00 0.00 0.00 0.00 0.00 0.00 0.00 0.00 0.00 0.00 0.00 0.00 0.00 0.00 0.00
0.00 0.00 0.00 0.00 0.00 0.00 0.00 0.00 0.00 0.00 0.00 0.00 0.00 0.00 0.00 0.00 0.00 0.00 0.00 0.00 0.00 0.00 0.00 0.00 0.00 0.00 0.00 0.00 0.00 0.00 0.00 0.00 0.00 0.00 0.00 0.00 0.00 0.00 0.00 0.00 0.00 0.00 0.00
0.00 0.00 0.00 0.00 0.00 0.00 0.00 0.00 0.00 0.00 0.00 0.00 0.00 0.00 0.00 0.00 0.00 0.00 0.00 0.00 0.00 0.00 0.00 0.00 0.00 0.00 0.00 0.00 0.00 0.00 0.00 0.00 0.00 0.00 0.00 0.00 0.00 0.00 0.00 0.00 0.00 0.00 0.00
0.00 0.00 0.00 0.00 0.00 0.00 0.00 0.00 0.00 0.00 0.00 0.00 0.00 0.00 0.00 0.00 0.00 0.00 0.00 0.00 0.00 0.00 0.00 0.00 0.00 0.00 0.00 0.00 0.00 0.00 0.00 0.00 0.00 0.00 0.00 0.00 0.00 0.00 0.00 0.00 0.00 0.00 0.00
MSLP
1019.61 1019.79 1019.92 1020.00 1020.07 1020.14 1020.22 1020.31 1020.40 1020.45 1020.47 1020.43 1020.34 1020.22 1020.09 1019.97 1019.90 1019.89 1019.94 1020.04 1020.16 1020.29 1020.41 1020.51 1020.58 1020.64 1020.70 1020.78 1020.88 1021.00 1021.13 1021.28 1021.41 1021.52 1021.61 1021.66 1021.70 1021.71 1021.73 1021.74 1021.77 1021.80 1021.83
1019.33 1019.51 1019.65 1019.76 1019.85 1019.93 1020.01 1020.09 1020.16 1020.22 1020.23 1020.21 1020.14 1020.03 1019.91 1019.79 1019.70 1019.66 1019.67 1019.72 1019.81 1019.91 1020.02 1020.12 1020.20 1020.28 1020.35 1020.44 1020.54 1020.67 1020.82 1020.98 1021.14 1021.29 1021.43 1021.54 1021.64 1021.72 1021.78 1021.83 1021.88 1021.94 1022.00
1019.06 1019.26 1019.42 1019.55 1019.66 1019.75 1019.84 1019.92 1019.99 1020.05 1020.07 1020.06 1020.01 1019.91 1019.79 1019.66 1019.55 1019.46 1019.41 1019.41 1019.45 1019.52 1019.61 1019.70 1019.80 1019.89 1019.98 1020.07 1020.18 1020.30 1020.45 1020.61 1020.78 1020.96 1021.14 1021.31 1021.46 1021.60 1021.71 1021.82 1021.91 1022.00 1022.08
1018.85 1019.05 1019.24 1019.39 1019.52 1019.63 1019.73 1019.81 1019.89 1019.95 1019.99 1019.99 1019.95 1019.86 1019.74 1019.59 1019.43 1019.29 1019.18 1019.12 1019.10 1019.14 1019.21 1019.31 1019.42 1019.53 1019.63 1019.74 1019.84 1019.95 1020.07 1020.22 1020.38 1020.57 1020.77 1020.97 1021.17 1021.36 1021.53 1021.68 1021.82 1021.95 1022.08
1018.71 1018.93 1019.13 1019.30 1019.45 1019.57 1019.67 1019.76 1019.84 1019.90 1019.95 1019.97 1019.93 1019.85 1019.72 1019.54 1019.34 1019.15 1018.98 1018.85 1018.80 1018.80 1018.87 1018.98 1019.11 1019.25 1019.38 1019.49 1019.58 1019.66 1019.75 1019.86 1019.99 1020.15 1020.35 1020.56 1020.78 1021.01 1021.22 1021.42 1021.61 1021.79 1021.96
1018.66 1018.88 1019.09 1019.28 1019.43 1019.55 1019.65 1019.74 1019.82 1019.88 1019.93 1019.96 1019.93 1019.85 1019.71 1019.51 1019.27 1019.02 1018.81 1018.64 1018.55 1018.55 1018.62 1018.76 1018.93 1019.10 1019.26 1019.38 1019.46 1019.51 1019.55 1019.60 1019.67 1019.78 1019.94 1020.13 1020.35 1020.58 1020.82 1021.05 1021.27 1021.49 1021.70
1018.70 1018.92 1019.13 1019.32 1019.46 1019.58 1019.66 1019.74 1019.80 1019.87 1019.92 1019.94 1019.92 1019.84 1019.69 1019.47 1019.21 1018.93 1018.68 1018.49 1018.39 1018.39 1018.49 1018.67 1018.89 1019.11 1019.30 1019.44 1019.51 1019.53 1019.51 1019.48 1019.47 1019.51 1019.59 1019.73 1019.91 1020.12 1020.35 1020.59 1020.83 1021.06 1021.30
1018.83 1019.05 1019.25 1019.42 1019.55 1019.64 1019.70 1019.75 1019.80 1019.85 1019.89 1019.92 1019.90 1019.82 1019.67 1019.45 1019.17 1018.87 1018.61 1018.41 1018.32 1018.34 1018.49 1018.72 1019.00 1019.28 1019.52 1019.68 1019.75 1019.73 1019.65 1019.54 1019.44 1019.37 1019.36 1019.41 1019.52 1019.67 1019.86 1020.07 1020.29 1020.53 1020.78
1019.03 1019.24 1019.43 1019.58 1019.68 1019.74 1019.77 1019.78 1019.81 1019.83 1019.87 1019.90 1019.88 1019.81 1019.66 1019.44 1019.16 1018.87 1018.60 1018.42 1018.35 1018.41 1018.61 1018.90 1019.25 1019.59 1019.87 1020.06 1020.13 1020.09 1019.95 1019.77 1019.57 1019.39 1019.27 1019.21 1019.22 1019.28 1019.39 1019.54 1019.71 1019.91 1020.15
1019.31 1019.51 1019.69 1019.81 1019.88 1019.89 1019.88 1019.86 1019.84 1019.85 1019.88 1019.90 1019.89 1019.83 1019.69 1019.48 1019.21 1018.93 1018.68 1018.51 1018.47 1018.58 1018.82 1019.17 1019.58 1019.98 1020.31 1020.53 1020.61 1020.55 1020.38 1020.13 1019.84 1019.57 1019.33 1019.16 1019.05 1019.00 1019.00 1019.05 1019.15 1019.29 1019.49
1019.63 1019.84 1020.00 1020.09 1020.12 1020.10 1020.04 1019.98 1019.93 1019.92 1019.93 1019.94 1019.94 1019.89 1019.77 1019.58 1019.33 1019.07 1018.84 1018.70 1018.68 1018.82 1019.10 1019.49 1019.94 1020.38 1020.75 1021.00 1021.10 1021.04 1020.84 1020.55 1020.21 1019.85 1019.52 1019.24 1019.01 1018.85 1018.73 1018.67 1018.67 1018.73 1018.86
1019.99 1020.20 1020.35 1020.42 1020.41 1020.35 1020.25 1020.15 1020.08 1020.04 1020.04 1020.05 1020.06 1020.02 1019.92 1019.75 1019.53 1019.29 1019.08 1018.96 1018.96 1019.12 1019.41 1019.83 1020.30 1020.76 1021.16 1021.43 1021.54 1021.49 1021.29 1020.98 1020.60 1020.20 1019.80 1019.44 1019.12 1018.84 1018.62 1018.45 1018.34 1018.30 1018.35
1020.35 1020.57 1020.71 1020.76 1020.73 1020.63 1020.50 1020.37 1020.27 1020.22 1020.21 1020.22 1020.24 1020.22 1020.14 1019.99 1019.80 1019.58 1019.40 1019.29 1019.30 1019.46 1019.76 1020.16 1020.63 1021.09 1021.48 1021.76 1021.89 1021.85 1021.67 1021.37 1020.99 1020.57 1020.15 1019.73 1019.35 1019.00 1018.69 1018.42 1018.21 1018.08 1018.04
1020.70 1020.92 1021.05 1021.09 1021.03 1020.91 1020.76 1020.61 1020.50 1020.44 1020.43 1020.45 1020.48 1020.47 1020.42 1020.30 1020.14 1019.95 1019.79 1019.69 1019.70 1019.85 1020.12 1020.50 1020.93 1021.37 1021.74 1022.01 1022.14 1022.12 1021.96 1021.69 1021.34 1020.94 1020.52 1020.10 1019.70 1019.30 1018.93 1018.60 1018.32 1018.11 1017.99
1021.01 1021.23 1021.35 1021.37 1021.30 1021.17 1021.02 1020.86 1020.75 1020.69 1020.69 1020.72 1020.76 1020.78 1020.75 1020.67 1020.53 1020.38 1020.24 1020.15 1020.16 1020.29 1020.53 1020.85 1021.24 1021.62 1021.95 1022.19 1022.31 1022.30 1022.17 1021.95 1021.64 1021.29 1020.91 1020.53 1020.13 1019.74 1019.36 1018.99 1018.67 1018.41 1018.24
1021.24 1021.45 1021.57 1021.58 1021.52 1021.39 1021.24 1021.10 1021.01 1020.96 1020.97 1021.02 1021.08 1021.12 1021.12 1021.07 1020.97 1020.85 1020.74 1020.67 1020.68 1020.79 1020.98 1021.26 1021.58 1021.90 1022.17 1022.37 1022.46 1022.46 1022.35 1022.17 1021.92 1021.63 1021.32 1020.98 1020.64 1020.28 1019.92 1019.56 1019.23 1018.95 1018.74
1021.40 1021.60 1021.70 1021.72 1021.66 1021.56 1021.44 1021.33 1021.26 1021.25 1021.28 1021.35 1021.43 1021.49 1021.52 1021.50 1021.45 1021.36 1021.28 1021.24 1021.25 1021.34 1021.51 1021.73 1021.98 1022.23 1022.44 1022.59 1022.65 1022.63 1022.54 1022.39 1022.20 1021.97 1021.73 1021.47 1021.19 1020.89 1020.58 1020.25 1019.94 1019.66 1019.46
1021.48 1021.66 1021.76 1021.79 1021.76 1021.69 1021.61 1021.56 1021.53 1021.55 1021.62 1021.71 1021.81 1021.89 1021.94 1021.95 1021.93 1021.88 1021.84 1021.82 1021.85 1021.94 1022.08 1022.26 1022.46 1022.64 1022.79 1022.88 1022.91 1022.87 1022.78 1022.66 1022.50 1022.34 1022.16 1021.97 1021.75 1021.52 1021.26 1020.98 1020.71 1020.46 1020.26
1021.49 1021.67 1021.78 1021.83 1021.83 1021.82 1021.80 1021.79 1021.82 1021.89 1021.98 1022.10 1022.21 1022.30 1022.37 1022.40 1022.40 1022.39 1022.38 1022.40 1022.45 1022.54 1022.67 1022.82 1022.98 1023.11 1023.21 1023.25 1023.24 1023.19 1023.09 1022.98 1022.86 1022.73 1022.60 1022.46 1022.30 1022.12 1021.91 1021.68 1021.44 1021.22 1021.03
1021.48 1021.65 1021.77 1021.85 1021.91 1021.95 1021.99 1022.05 1022.14 1022.25 1022.37 1022.50 1022.62 1022.72 1022.79 1022.83 1022.84 1022.85 1022.87 1022.92 1022.99 1023.10 1023.23 1023.37 1023.50 1023.60 1023.66 1023.67 1023.64 1023.56 1023.46 1023.35 1023.24 1023.14 1023.04 1022.93 1022.81 1022.66 1022.48 1022.28 1022.07 1021.87 1021.70
1021.44 1021.62 1021.77 1021.90 1022.00 1022.11 1022.22 1022.34 1022.48 1022.62 1022.77 1022.91 1023.02 1023.11 1023.17 1023.20 1023.22 1023.24 1023.28 1023.34 1023.44 1023.56 1023.70 1023.84 1023.96 1024.05 1024.09 1024.09 1024.04 1023.96 1023.85 1023.75 1023.65 1023.55 1023.46 1023.36 1023.25 1023.11 1022.95 1022.76 1022.56 1022.36 1022.19
1021.40 1021.61 1021.80 1021.96 1022.12 1022.28 1022.45 1022.63 1022.80 1022.98 1023.14 1023.28 1023.38 1023.45 1023.49 1023.51 1023.52 1023.53 1023.58 1023.65 1023.75 1023.89 1024.04 1024.19 1024.32 1024.41 1024.45 1024.45 1024.40 1024.33 1024.23 1024.13 1024.03 1023.94 1023.85 1023.75 1023.63 1023.48 1023.31 1023.11 1022.89 1022.69 1022.50
1021.38 1021.62 1021.84 1022.04 1022.25 1022.45 1022.66 1022.87 1023.08 1023.27 1023.44 1023.57 1023.66 1023.71 1023.73 1023.72 1023.71 1023.72 1023.76 1023.83 1023.94 1024.08 1024.24 1024.39 1024.53 1024.64 1024.70 1024.71 1024.69 1024.63 1024.55 1024.47 1024.38 1024.29 1024.19 1024.08 1023.95 1023.79 1023.59 1023.36 1023.13 1022.89 1022.68
1021.36 1021.63 1021.88 1022.11 1022.34 1022.57 1022.80 1023.03 1023.25 1023.45 1023.61 1023.74 1023.82 1023.85 1023.86 1023.84 1023.82 1023.81 1023.83 1023.90 1024.00 1024.14 1024.30 1024.46 1024.61 1024.73 1024.81 1024.86 1024.86 1024.84 1024.79 1024.73 1024.66 1024.59 1024.49 1024.38 1024.23 1024.05 1023.83 1023.58 1023.31 1023.04 1022.80
1021.33 1021.63 1021.89 1022.14 1022.37 1022.60 1022.83 1023.06 1023.28 1023.47 1023.64 1023.77 1023.85 1023.88 1023.88 1023.86 1023.83 1023.82 1023.84 1023.89 1023.98 1024.11 1024.26 1024.42 1024.58 1024.72 1024.82 1024.89 1024.93 1024.95 1024.94 1024.92 1024.88 1024.83 1024.75 1024.64 1024.49 1024.30 1024.06 1023.79 1023.49 1023.20 1022.93
1021.26 1021.57 1021.84 1022.07 1022.29 1022.50 1022.72 1022.93 1023.14 1023.33 1023.51 1023.64 1023.74 1023.80 1023.82 1023.81 1023.80 1023.79 1023.81 1023.85 1023.93 1024.05 1024.18 1024.34 1024.49 1024.63 1024.76 1024.85 1024.93 1024.98 1025.02 1025.04 1025.04 1025.02 1024.96 1024.87 1024.73 1024.54 1024.30 1024.03 1023.72 1023.41 1023.12
Thickness
5705 5705 5704 5703 5702 5701 5700 5698 5698 5698 5697 5696 5695 5694 5692 5690 5689 5688 5685 5681 5678 5674 5670 5666 5662 5659 5655 5651 5647 5643 5639 5635 5631 5627 5624 5621 5618 5615 5613 5611 5609 5607 5606
5702 5701 5700 5700 5699 5698 5697 5696 5695 5695 5694 5693 5692 5691 5690 5688 5687 5685 5683 5680 5676 5672 5668 5664 5660 5656 5653 5649 5644 5640 5635 5631 5627 5623 5619 5616 5613 5610 5607 5604 5602 5601 5599
5698 5697 5696 5695 5695 5694 5694 5693 5692 5691 5690 5689 5688 5687 5686 5685 5683 5681 5679 5677 5675 5671 5666 5661 5657 5653 5649 5645 5641 5637 5632 5627 5623 5619 5615 5611 5607 5604 5601 5598 5596 5594 5592
5694 5693 5692 5691 5691 5690 5689 5688 5687 5685 5684 5684 5683 5683 5683 5682 5680 5678 5676 5673 5670 5668 5664 5659 5654 5649 5645 5641 5637 5633 5629 5624 5619 5615 5610 5606 5603 5599 5596 5593 5590 5588 5586
5690 5689 5687 5687 5686 5686 5684 5683 5682 5680 5678 5678 5678 5678 5677 5676 5675 5674 5671 5669 5666 5663 5659 5655 5650 5645 5640 5636 5632 5629 5625 5620 5615 5611 5606 5602 5598 5595 5591 5588 5585 5582 5580
5684 5683 5682 5681 5681 5680 5678 5677 5676 5675 5673 5672 5672 5671 5671 5670 5670 5669 5667 5664 5660 5657 5653 5648 5644 5639 5634 5630 5626 5622 5619 5615 5611 5607 5602 5599 5595 5591 5588 5584 5581 5577 5575
5678 5677 5676 5675 5674 5673 5672 5671 5669 5668 5666 5665 5663 5662 5664 5666 5666 5665 5663 5658 5653 5650 5646 5641 5637 5632 5628 5623 5618 5614 5611 5608 5605 5601 5598 5594 5591 5587 5584 5580 5577 5573 5570
5670 5669 5668 5667 5666 5665 5664 5663 5662 5660 5659 5657 5653 5650 5651 5655 5658 5660 5656 5651 5646 5641 5637 5632 5628 5623 5619 5614 5609 5605 5602 5599 5597 5594 5592 5589 5586 5583 5579 5576 5573 5569 5566
5661 5660 5659 5658 5658 5657 5655 5654 5653 5651 5649 5648 5647 5642 5638 5638 5642 5646 5645 5642 5637 5632 5627 5623 5618 5613 5608 5604 5599 5595 5592 5590 5588 5586 5585 5583 5581 5578 5575 5572 5569 5565 5562
5652 5650 5649 5649 5648 5647 5646 5645 5644 5642 5641 5639 5638 5637 5635 5633 5628 5629 5630 5629 5626 5621 5616 5612 5607 5602 5597 5593 5588 5584 5582 5580 5579 5578 5577 5576 5574 5573 5571 5568 5565 5562 5558
5641 5639 5638 5638 5637 5637 5636 5635 5634 5633 5632 5630 5628 5627 5626 5625 5623 5618 5616 5615 5612 5609 5604 5600 5595 5590 5585 5581 5576 5573 5571 5570 5569 5569 5568 5568 5567 5566 5564 5562 5560 5558 5554
5631 5628 5627 5626 5626 5625 5624 5623 5623 5622 5621 5620 5619 5617 5615 5613 5612 5609 5607 5605 5601 5597 5593 5587 5582 5577 5573 5569 5565 5563 5561 5560 5560 5560 5559 5559 5558 5557 5555 5554 5553 5551 5548
5620 5617 5616 5615 5614 5613 5613 5612 5611 5611 5610 5608 5607 5606 5604 5602 5600 5598 5596 5594 5592 5588 5582 5573 5568 5565 5561 5557 5554 5552 5550 5550 5550 5550 5549 5548 5547 5546 5546 5546 5545 5543 5541
5608 5606 5605 5604 5603 5602 5601 5600 5600 5599 5598 5596 5595 5593 5591 5589 5587 5585 5584 5582 5579 5577 5573 5563 5555 5552 5549 5546 5543 5541 5540 5539 5539 5538 5538 5537 5535 5535 5535 5535 5535 5534 5533
5596 5594 5593 5592 5591 5590 5589 5588 5588 5587 5585 5584 5582 5580 5578 5576 5573 5572 5570 5569 5567 5566 5562 5553 5545 5540 5538 5535 5533 5531 5529 5528 5528 5527 5526 5525 5524 5524 5524 5524 5523 5523 5522
5583 5582 5581 5580 5578 5578 5577 5576 5575 5574 5573 5571 5569 5568 5565 5563 5561 5559 5557 5556 5554 5553 5550 5541 5534 5529 5527 5525 5523 5521 5519 5518 5517 5516 5515 5514 5513 5512 5512 5512 5512 5512 5511
5571 5570 5568 5567 5566 5565 5564 5564 5563 5562 5560 5558 5556 5555 5552 5550 5548 5546 5544 5542 5540 5538 5537 5529 5524 5520 5517 5515 5513 5511 5509 5508 5507 5506 5505 5503 5502 5501 5501 5500 5500 5500 5500
5559 5557 5556 5554 5553 5552 5551 5551 5550 5548 5547 5545 5543 5541 5539 5537 5535 5533 5531 5529 5527 5525 5524 5520 5514 5510 5508 5505 5503 5501 5500 5498 5497 5496 5495 5493 5492 5491 5490 5489 5488 5488 5487
5546 5545 5543 5541 5540 5539 5538 5538 5536 5535 5533 5531 5530 5528 5525 5523 5521 5519 5517 5516 5515 5514 5512 5509 5504 5501 5498 5496 5494 5492 5491 5489 5488 5486 5484 5483 5482 5481 5479 5478 5477 5476 5475
5534 5532 5531 5529 5527 5526 5525 5524 5523 5521 5519 5517 5515 5514 5512 5509 5508 5506 5505 5503 5503 5502 5501 5498 5494 5491 5488 5487 5484 5481 5480 5479 5477 5476 5474 5473 5472 5471 5469 5467 5466 5464 5463
5522 5520 5518 5517 5515 5513 5512 5511 5510 5508 5505 5503 5501 5499 5498 5497 5496 5494 5493 5491 5490 5489 5488 5486 5483 5480 5477 5475 5472 5471 5468 5467 5467 5465 5464 5463 5462 5461 5459 5457 5455 5454 5452
5510 5509 5507 5505 5503 5502 5500 5499 5497 5494 5492 5490 5488 5487 5485 5484 5484 5483 5482 5481 5481 5478 5475 5474 5472 5469 5467 5464 5462 5461 5457 5455 5454 5454 5452 5452 5452 5450 5449 5447 5445 5443 5441
5500 5498 5496 5494 5491 5490 5488 5487 5485 5482 5480 5478 5477 5475 5475 5474 5473 5472 5471 5471 5470 5469 5467 5464 5461 5459 5456 5454 5452 5450 5447 5444 5442 5443 5442 5440 5441 5439 5438 5436 5434 5432 5430
5489 5487 5485 5483 5480 5478 5477 5475 5473 5470 5468 5467 5466 5466 5464 5464 5463 5462 5461 5460 5459 5458 5457 5455 5452 5450 5448 5446 5443 5440 5438 5436 5435 5434 5432 5428 5427 5427 5427 5425 5423 5421 5419
5480 5477 5475 5472 5470 5468 5467 5465 5463 5460 5459 5458 5457 5457 5456 5455 5455 5454 5452 5451 5449 5448 5447 5446 5444 5442 5439 5437 5435 5431 5428 5425 5422 5422 5420 5417 5415 5413 5414 5413 5412 5409 5407
5471 5468 5465 5463 5461 5459 5459 5457 5455 5452 5450 5449 5449 5448 5448 5447 5446 5445 5443 5442 5440 5439 5438 5436 5434 5432 5430 5428 5425 5421 5417 5412 5410 5408 5407 5404 5401 5399 5397 5399 5398 5397 5395